QPF
0.00 0.00 0.00 0.00 0.00 0.00 0.00 0.00 0.00 0.00 0.00 0.00 0.00 0.00 0.00 0.00 0.00 0.00 0.00 0.00 0.00 0.00 0.00 0.00 0.00 0.00 0.00 0.00 0.00 0.00 0.00 0.00 0.00 0.00 0.00 0.00 0.00 0.00 0.00 0.01 0.04 0.06 0.05
0.00 0.00 0.00 0.00 0.00 0.00 0.00 0.00 0.00 0.00 0.00 0.00 0.00 0.00 0.00 0.00 0.00 0.00 0.00 0.00 0.00 0.00 0.00 0.00 0.00 0.00 0.00 0.00 0.00 0.00 0.00 0.00 0.00 0.00 0.00 0.00 0.00 0.00 0.00 0.00 0.02 0.04 0.07
0.00 0.00 0.00 0.00 0.00 0.00 0.00 0.00 0.00 0.00 0.00 0.00 0.00 0.00 0.00 0.00 0.00 0.00 0.00 0.00 0.00 0.00 0.00 0.00 0.00 0.00 0.00 0.00 0.00 0.00 0.00 0.00 0.00 0.00 0.00 0.00 0.00 0.00 0.00 0.00 0.00 0.00 0.01
0.00 0.00 0.00 0.00 0.00 0.00 0.00 0.00 0.00 0.00 0.00 0.00 0.00 0.00 0.00 0.00 0.00 0.00 0.00 0.00 0.00 0.00 0.00 0.00 0.00 0.00 0.00 0.00 0.00 0.00 0.00 0.00 0.00 0.00 0.00 0.00 0.00 0.00 0.00 0.00 0.00 0.00 0.00
0.00 0.00 0.00 0.00 0.00 0.00 0.00 0.00 0.00 0.00 0.00 0.00 0.00 0.00 0.00 0.00 0.00 0.00 0.00 0.00 0.00 0.00 0.00 0.00 0.00 0.00 0.00 0.00 0.00 0.00 0.00 0.00 0.00 0.00 0.00 0.00 0.00 0.00 0.00 0.00 0.00 0.00 0.00
0.00 0.00 0.00 0.00 0.00 0.00 0.00 0.00 0.00 0.00 0.00 0.00 0.00 0.00 0.00 0.00 0.00 0.00 0.00 0.00 0.00 0.00 0.00 0.00 0.00 0.00 0.00 0.00 0.00 0.00 0.00 0.00 0.00 0.00 0.00 0.00 0.00 0.00 0.00 0.00 0.00 0.00 0.00
0.00 0.00 0.00 0.00 0.00 0.00 0.00 0.00 0.00 0.00 0.00 0.00 0.00 0.00 0.00 0.00 0.00 0.00 0.00 0.00 0.00 0.00 0.00 0.00 0.00 0.00 0.00 0.00 0.00 0.00 0.00 0.00 0.00 0.00 0.00 0.00 0.00 0.00 0.00 0.00 0.00 0.00 0.00
0.00 0.00 0.00 0.00 0.00 0.00 0.00 0.00 0.00 0.00 0.00 0.00 0.00 0.00 0.00 0.00 0.00 0.00 0.00 0.00 0.00 0.00 0.00 0.00 0.00 0.00 0.00 0.00 0.00 0.00 0.00 0.00 0.00 0.00 0.00 0.00 0.00 0.00 0.00 0.00 0.00 0.00 0.00
0.00 0.00 0.00 0.00 0.00 0.00 0.00 0.00 0.00 0.00 0.00 0.00 0.00 0.00 0.00 0.00 0.00 0.00 0.00 0.00 0.00 0.00 0.00 0.00 0.00 0.00 0.00 0.00 0.00 0.00 0.00 0.00 0.00 0.00 0.00 0.00 0.00 0.00 0.00 0.00 0.00 0.00 0.00
0.00 0.00 0.00 0.00 0.00 0.00 0.00 0.00 0.00 0.00 0.00 0.00 0.00 0.00 0.00 0.00 0.00 0.00 0.00 0.00 0.00 0.00 0.00 0.00 0.00 0.00 0.00 0.00 0.00 0.00 0.00 0.00 0.00 0.00 0.00 0.00 0.00 0.00 0.00 0.00 0.00 0.00 0.00
0.00 0.00 0.00 0.00 0.00 0.00 0.00 0.00 0.00 0.00 0.00 0.00 0.00 0.00 0.00 0.00 0.00 0.00 0.00 0.00 0.00 0.00 0.00 0.00 0.00 0.00 0.00 0.00 0.00 0.00 0.00 0.00 0.00 0.00 0.00 0.00 0.00 0.00 0.00 0.00 0.00 0.00 0.00
0.00 0.00 0.00 0.00 0.00 0.00 0.00 0.00 0.00 0.00 0.00 0.00 0.00 0.00 0.00 0.00 0.00 0.00 0.00 0.00 0.00 0.00 0.00 0.00 0.00 0.00 0.00 0.00 0.00 0.00 0.00 0.00 0.00 0.00 0.00 0.00 0.00 0.00 0.00 0.00 0.00 0.00 0.00
0.00 0.00 0.00 0.00 0.00 0.00 0.00 0.00 0.00 0.00 0.00 0.00 0.00 0.00 0.00 0.00 0.00 0.00 0.00 0.00 0.00 0.00 0.00 0.00 0.00 0.00 0.00 0.00 0.00 0.00 0.00 0.00 0.00 0.00 0.00 0.00 0.00 0.00 0.00 0.00 0.00 0.00 0.00
0.00 0.00 0.00 0.00 0.00 0.00 0.00 0.00 0.00 0.00 0.00 0.00 0.00 0.00 0.00 0.00 0.00 0.00 0.00 0.00 0.00 0.00 0.00 0.00 0.00 0.00 0.00 0.00 0.00 0.00 0.00 0.00 0.00 0.00 0.00 0.00 0.00 0.00 0.00 0.00 0.00 0.00 0.01
0.00 0.00 0.00 0.00 0.00 0.00 0.00 0.00 0.00 0.00 0.00 0.00 0.00 0.00 0.00 0.00 0.00 0.00 0.00 0.00 0.00 0.00 0.00 0.00 0.00 0.00 0.00 0.00 0.00 0.00 0.00 0.00 0.00 0.00 0.00 0.00 0.00 0.00 0.00 0.00 0.00 0.00 0.00
0.00 0.00 0.00 0.00 0.00 0.00 0.00 0.00 0.00 0.00 0.00 0.00 0.00 0.00 0.00 0.00 0.00 0.00 0.00 0.00 0.00 0.00 0.00 0.00 0.00 0.00 0.00 0.00 0.00 0.00 0.00 0.00 0.00 0.00 0.00 0.00 0.00 0.00 0.00 0.00 0.00 0.00 0.00
0.00 0.00 0.00 0.00 0.00 0.00 0.00 0.00 0.00 0.00 0.00 0.01 0.00 0.00 0.00 0.00 0.00 0.00 0.00 0.00 0.00 0.00 0.00 0.00 0.00 0.00 0.00 0.00 0.00 0.00 0.00 0.00 0.00 0.00 0.00 0.00 0.00 0.00 0.00 0.00 0.00 0.00 0.00
0.00 0.00 0.00 0.00 0.00 0.00 0.00 0.00 0.00 0.00 0.00 0.01 0.00 0.00 0.00 0.00 0.00 0.00 0.00 0.00 0.00 0.00 0.00 0.00 0.00 0.00 0.00 0.00 0.00 0.00 0.00 0.00 0.00 0.00 0.00 0.00 0.00 0.00 0.00 0.00 0.01 0.01 0.00
0.00 0.00 0.00 0.00 0.00 0.00 0.00 0.01 0.02 0.02 0.01 0.00 0.00 0.00 0.00 0.00 0.00 0.00 0.00 0.00 0.00 0.00 0.00 0.00 0.00 0.00 0.00 0.00 0.00 0.00 0.01 0.02 0.01 0.00 0.00 0.00 0.00 0.00 0.00 0.03 0.06 0.02 0.01
0.00 0.00 0.00 0.00 0.00 0.00 0.00 0.00 0.00 0.00 0.00 0.00 0.00 0.00 0.00 0.00 0.00 0.00 0.00 0.00 0.00 0.00 0.00 0.00 0.00 0.00 0.00 0.00 0.00 0.00 0.04 0.06 0.03 0.02 0.01 0.01 0.00 0.00 0.00 0.03 0.04 0.03 0.01
0.00 0.00 0.00 0.00 0.00 0.00 0.00 0.00 0.00 0.00 0.00 0.00 0.00 0.00 0.00 0.00 0.00 0.00 0.00 0.00 0.00 0.00 0.00 0.00 0.00 0.00 0.00 0.00 0.00 0.01 0.04 0.04 0.04 0.01 0.01 0.01 0.02 0.03 0.03 0.03 0.04 0.02 0.00
0.00 0.00 0.00 0.00 0.00 0.00 0.00 0.00 0.00 0.00 0.00 0.00 0.00 0.00 0.00 0.00 0.00 0.00 0.00 0.00 0.00 0.00 0.00 0.00 0.00 0.00 0.00 0.00 0.00 0.01 0.02 0.03 0.07 0.03 0.01 0.01 0.01 0.03 0.03 0.03 0.04 0.03 0.04
0.00 0.00 0.00 0.01 0.01 0.00 0.00 0.00 0.00 0.00 0.00 0.00 0.00 0.00 0.00 0.00 0.00 0.00 0.00 0.00 0.00 0.00 0.00 0.01 0.00 0.00 0.00 0.00 0.00 0.00 0.01 0.03 0.04 0.02 0.02 0.02 0.01 0.01 0.01 0.00 0.00 0.02 0.05
0.00 0.00 0.01 0.01 0.00 0.00 0.00 0.00 0.00 0.00 0.00 0.00 0.00 0.00 0.00 0.00 0.00 0.00 0.00 0.00 0.00 0.00 0.01 0.00 0.01 0.00 0.00 0.00 0.00 0.02 0.01 0.01 0.01 0.01 0.01 0.01 0.02 0.03 0.03 0.04 0.03 0.06 0.08
0.00 0.01 0.00 0.00 0.00 0.00 0.00 0.00 0.00 0.00 0.00 0.00 0.00 0.00 0.00 0.00 0.00 0.00 0.00 0.00 0.00 0.00 0.01 0.01 0.01 0.03 0.02 0.01 0.04 0.05 0.05 0.04 0.03 0.03 0.02 0.02 0.01 0.01 0.01 0.02 0.01 0.01 0.03
0.01 0.01 0.00 0.00 0.00 0.00 0.00 0.00 0.00 0.00 0.00 0.00 0.00 0.00 0.00 0.00 0.00 0.00 0.00 0.00 0.00 0.00 0.00 0.00 0.02 0.02 0.02 0.03 0.05 0.04 0.05 0.02 0.01 0.02 0.01 0.01 0.01 0.01 0.02 0.03 0.05 0.02 0.01
MSLP
1008.24 1008.60 1009.41 1010.53 1011.68 1012.64 1013.39 1013.99 1014.29 1014.59 1015.01 1015.43 1015.68 1015.82 1015.87 1015.77 1015.76 1015.73 1015.82 1016.17 1016.36 1016.56 1016.70 1016.67 1016.63 1016.68 1017.01 1017.26 1017.41 1017.54 1017.77 1017.76 1017.48 1017.38 1016.89 1016.33 1015.73 1015.43 1014.79 1014.44 1013.99 1013.67 1013.16
1009.15 1009.47 1010.16 1010.92 1011.85 1012.70 1013.34 1013.80 1014.14 1014.43 1014.80 1015.22 1015.40 1015.45 1015.36 1015.29 1015.27 1015.29 1015.48 1015.71 1016.04 1016.21 1016.35 1016.51 1016.58 1016.68 1016.83 1017.10 1017.15 1017.22 1017.50 1017.50 1017.29 1017.38 1017.12 1016.28 1015.64 1014.93 1014.68 1014.33 1013.84 1013.44 1013.08
1009.98 1010.27 1010.76 1011.33 1011.80 1012.47 1013.04 1013.45 1013.65 1013.80 1014.03 1014.39 1014.76 1014.72 1014.80 1014.98 1015.11 1015.03 1015.23 1015.41 1015.48 1015.71 1015.93 1016.04 1016.21 1016.47 1016.65 1016.91 1017.02 1017.08 1017.20 1017.35 1017.24 1017.07 1017.21 1016.53 1015.85 1015.20 1014.73 1014.22 1013.90 1013.56 1013.49
1010.08 1010.49 1010.79 1011.15 1011.58 1011.93 1012.32 1012.79 1013.13 1013.25 1013.41 1013.68 1014.10 1014.44 1014.40 1014.70 1014.83 1014.77 1014.79 1014.78 1014.86 1015.28 1015.49 1015.76 1015.97 1016.24 1016.41 1016.58 1016.79 1016.81 1016.92 1017.07 1017.18 1016.85 1016.59 1016.42 1016.03 1015.56 1014.55 1014.42 1013.86 1013.31 1013.13
1010.23 1010.70 1010.95 1011.09 1011.19 1011.65 1012.10 1012.48 1012.83 1012.99 1013.00 1013.11 1013.28 1013.66 1013.95 1014.14 1014.18 1014.43 1014.44 1014.54 1014.78 1014.81 1014.95 1015.29 1015.79 1016.38 1016.50 1016.51 1016.68 1016.79 1016.82 1016.82 1016.82 1016.72 1016.57 1016.23 1015.88 1015.49 1015.13 1013.70 1013.64 1013.28 1012.68
1010.45 1010.79 1010.88 1010.96 1011.22 1011.52 1011.87 1012.27 1012.60 1012.71 1012.62 1012.63 1012.70 1013.00 1013.33 1013.77 1014.04 1014.21 1014.38 1014.39 1014.56 1014.90 1015.20 1015.67 1016.27 1016.57 1016.72 1016.78 1016.79 1016.88 1016.83 1016.69 1016.61 1016.59 1016.46 1016.23 1015.89 1015.42 1014.95 1014.41 1013.53 1013.08 1012.61
1010.38 1010.76 1011.02 1011.10 1011.25 1011.49 1011.72 1011.87 1011.97 1012.06 1012.19 1012.35 1012.46 1012.59 1012.85 1013.31 1013.73 1014.15 1014.39 1014.59 1014.73 1015.11 1015.42 1015.84 1016.42 1016.86 1016.87 1016.90 1016.96 1016.87 1016.71 1016.57 1016.42 1016.27 1016.15 1015.75 1015.46 1015.14 1014.63 1014.34 1013.56 1013.13 1012.48
1010.18 1010.29 1010.54 1010.92 1011.15 1011.36 1011.46 1011.58 1011.57 1011.35 1011.27 1011.25 1011.25 1011.36 1011.89 1012.56 1013.12 1013.70 1014.21 1014.71 1015.11 1015.21 1015.37 1015.84 1016.51 1016.87 1016.81 1016.91 1016.83 1016.64 1016.38 1016.21 1016.05 1015.81 1015.52 1015.10 1014.78 1014.44 1014.17 1013.67 1013.31 1012.71 1011.94
1009.72 1010.06 1010.33 1010.78 1011.06 1011.22 1011.29 1011.41 1011.42 1011.22 1010.91 1010.78 1010.68 1010.78 1011.20 1012.00 1012.80 1013.50 1014.31 1015.00 1015.41 1015.77 1015.74 1016.28 1016.51 1016.73 1016.52 1016.45 1016.35 1016.11 1015.88 1015.70 1015.53 1015.26 1014.97 1014.64 1014.34 1014.00 1013.63 1013.24 1013.21 1012.96 1011.69
1009.69 1010.07 1010.36 1010.70 1011.08 1011.18 1011.12 1011.25 1011.07 1010.84 1010.73 1010.73 1010.62 1010.80 1011.39 1012.15 1013.03 1013.80 1014.57 1015.41 1015.67 1015.97 1016.30 1016.41 1016.42 1016.32 1016.13 1015.99 1015.80 1015.58 1015.37 1015.18 1014.94 1014.64 1014.33 1014.01 1013.72 1013.33 1012.90 1012.72 1012.40 1012.16 1011.62
1009.69 1010.04 1010.36 1010.66 1010.94 1011.12 1011.24 1011.15 1010.84 1010.60 1010.53 1010.76 1011.06 1011.45 1011.99 1012.74 1013.52 1014.21 1014.90 1015.59 1016.01 1016.30 1016.33 1016.06 1015.91 1015.77 1015.54 1015.36 1015.14 1014.98 1014.78 1014.57 1014.34 1014.09 1013.81 1013.41 1013.16 1012.78 1012.51 1012.26 1011.89 1011.60 1011.43
1009.79 1010.38 1010.56 1010.59 1010.85 1011.16 1011.37 1011.21 1010.57 1010.44 1010.48 1010.81 1011.44 1012.03 1012.57 1013.17 1013.82 1014.58 1015.01 1015.52 1015.63 1015.88 1015.62 1015.57 1015.33 1015.09 1014.88 1014.72 1014.53 1014.33 1014.14 1013.92 1013.74 1013.48 1013.30 1012.93 1012.57 1012.23 1011.99 1011.76 1011.46 1011.09 1010.78
1010.25 1010.65 1010.64 1010.88 1011.18 1011.45 1011.45 1011.23 1010.59 1010.36 1010.49 1010.98 1011.82 1012.57 1013.13 1013.61 1014.10 1014.54 1014.81 1015.33 1015.35 1015.26 1015.20 1015.01 1014.78 1014.55 1014.36 1014.18 1013.95 1013.73 1013.50 1013.29 1013.07 1012.85 1012.68 1012.43 1012.20 1011.89 1011.63 1011.35 1010.98 1010.79 1010.44
1010.78 1010.88 1011.18 1011.37 1011.45 1011.48 1011.45 1010.84 1010.54 1010.33 1010.59 1011.17 1011.85 1012.54 1013.18 1013.58 1013.91 1014.22 1014.65 1014.95 1014.99 1014.87 1014.77 1014.61 1014.35 1014.12 1013.89 1013.65 1013.35 1013.09 1012.83 1012.62 1012.33 1012.16 1012.01 1011.85 1011.83 1011.75 1011.57 1011.28 1010.85 1010.64 1010.38
1011.45 1011.96 1012.10 1011.68 1011.66 1011.53 1011.15 1010.68 1010.61 1010.37 1010.78 1011.46 1012.01 1012.48 1013.02 1013.45 1014.05 1014.12 1014.33 1014.55 1014.66 1014.54 1014.32 1014.12 1013.89 1013.58 1013.34 1013.00 1012.73 1012.62 1012.53 1012.41 1012.16 1012.03 1011.91 1011.73 1011.63 1011.43 1011.23 1011.01 1010.50 1010.44 1010.12
1012.70 1012.74 1012.46 1012.35 1011.85 1011.36 1011.02 1011.01 1010.82 1010.65 1010.98 1011.61 1012.36 1013.12 1013.64 1013.43 1013.69 1014.02 1014.14 1014.28 1014.24 1014.08 1013.89 1013.65 1013.44 1013.12 1012.78 1012.48 1012.45 1012.43 1012.35 1012.21 1012.00 1011.68 1011.40 1011.12 1010.87 1010.52 1010.18 1009.95 1009.72 1009.76 1009.66
1013.13 1012.69 1012.49 1012.12 1011.52 1011.35 1011.54 1011.60 1011.41 1011.67 1011.92 1012.46 1013.11 1013.46 1013.57 1013.44 1013.65 1013.85 1013.99 1014.02 1014.04 1013.72 1013.54 1013.28 1013.03 1012.74 1012.45 1012.28 1012.31 1012.27 1012.13 1011.86 1011.44 1011.00 1010.63 1010.23 1009.81 1009.49 1009.12 1008.73 1008.46 1008.31 1008.33
1012.99 1012.51 1012.17 1011.70 1011.42 1011.65 1011.91 1011.89 1012.04 1012.18 1012.48 1012.85 1013.10 1012.97 1012.97 1013.19 1013.49 1013.71 1013.80 1013.77 1013.67 1013.61 1013.35 1013.01 1012.72 1012.54 1012.42 1012.33 1012.08 1011.68 1011.34 1010.92 1010.43 1009.93 1009.46 1009.04 1008.60 1008.30 1008.01 1007.67 1007.42 1007.23 1007.07
1012.78 1012.56 1011.90 1011.58 1011.77 1012.08 1012.25 1012.15 1012.24 1012.48 1012.74 1012.21 1012.03 1012.42 1012.82 1013.16 1013.34 1013.52 1013.55 1013.60 1013.56 1013.35 1013.06 1012.80 1012.74 1012.59 1012.23 1011.84 1011.31 1010.89 1010.46 1009.81 1009.07 1008.44 1007.87 1007.44 1007.02 1006.63 1006.50 1006.36 1006.07 1005.95 1005.79
1012.62 1011.94 1011.79 1012.02 1012.08 1012.12 1012.00 1011.78 1011.68 1011.60 1011.47 1011.65 1012.19 1012.64 1012.87 1013.11 1013.21 1013.35 1013.41 1013.32 1013.13 1012.98 1012.84 1012.70 1012.56 1012.29 1011.73 1011.12 1010.52 1010.05 1009.39 1008.53 1007.63 1007.09 1006.58 1006.12 1005.68 1005.40 1005.17 1005.01 1004.85 1004.65 1004.60
1011.91 1011.82 1012.07 1012.25 1012.05 1011.63 1011.70 1011.63 1011.46 1011.34 1011.75 1012.13 1012.53 1012.82 1012.93 1013.02 1013.10 1013.22 1013.16 1013.01 1012.94 1012.83 1012.61 1012.41 1012.28 1011.80 1011.22 1010.50 1009.84 1009.22 1008.71 1007.96 1007.08 1006.15 1005.46 1004.88 1004.41 1004.08 1003.91 1003.54 1003.43 1003.24 1003.27
1011.84 1012.22 1012.33 1012.31 1012.16 1012.04 1012.14 1011.82 1011.66 1011.86 1012.21 1012.51 1012.83 1013.01 1013.01 1013.12 1013.14 1013.17 1013.10 1012.96 1012.84 1012.51 1012.43 1012.20 1011.80 1011.33 1010.76 1010.06 1009.39 1008.82 1008.16 1007.30 1006.25 1005.16 1004.39 1003.86 1003.43 1003.06 1002.71 1002.49 1002.29 1002.29 1002.41
1012.53 1012.49 1012.41 1012.27 1012.29 1012.09 1011.78 1011.98 1012.45 1012.44 1012.62 1012.89 1013.01 1013.19 1013.28 1013.28 1013.18 1013.32 1013.12 1012.94 1012.66 1012.56 1012.36 1012.01 1011.63 1010.92 1010.34 1009.66 1008.95 1008.13 1007.28 1006.38 1005.54 1004.65 1003.80 1003.09 1002.47 1001.94 1001.60 1001.19 1000.86 1000.77 1000.99
1013.01 1012.89 1012.63 1012.45 1012.15 1011.91 1012.14 1012.56 1012.79 1012.93 1013.08 1013.28 1013.35 1013.46 1013.44 1013.35 1013.44 1013.41 1013.17 1012.92 1012.79 1012.62 1012.42 1012.12 1011.52 1010.78 1010.02 1009.40 1008.56 1007.67 1006.54 1005.56 1004.76 1003.89 1003.07 1002.45 1001.95 1001.42 1000.89 999.98 999.17 998.82 998.94
1013.03 1012.90 1012.66 1012.37 1012.01 1011.95 1012.32 1012.74 1013.10 1013.22 1013.48 1013.65 1013.69 1013.66 1013.67 1013.73 1013.60 1013.33 1013.11 1012.91 1012.88 1012.81 1012.38 1011.98 1011.42 1010.64 1009.96 1009.33 1008.49 1007.19 1006.20 1005.45 1004.68 1003.80 1003.03 1002.45 1001.81 1001.27 1000.65 999.62 998.66 998.41 998.26
1013.05 1012.73 1012.53 1012.12 1012.05 1012.19 1012.57 1012.87 1013.21 1013.79 1014.13 1014.18 1014.14 1014.22 1014.11 1013.96 1013.57 1013.30 1013.02 1012.92 1012.69 1012.35 1012.03 1011.63 1011.31 1010.75 1010.19 1009.28 1008.20 1007.09 1006.06 1005.51 1004.79 1004.07 1003.50 1003.02 1002.45 1001.75 1001.10 1000.18 999.17 998.90 998.91
Thickness
5696 5694 5685 5675 5664 5654 5645 5636 5630 5625 5618 5608 5602 5596 5592 5589 5584 5580 5572 5567 5560 5557 5551 5544 5540 5537 5534 5530 5527 5524 5521 5518 5518 5520 5526 5531 5536 5539 5545 5551 5557 5562 5567
5681 5680 5673 5667 5656 5646 5639 5632 5625 5618 5611 5603 5595 5590 5585 5582 5577 5572 5565 5559 5552 5545 5539 5533 5527 5521 5515 5510 5507 5506 5503 5502 5502 5501 5505 5512 5521 5526 5531 5537 5544 5549 5555
5668 5667 5664 5658 5652 5642 5634 5628 5622 5615 5607 5601 5592 5586 5581 5572 5565 5559 5552 5545 5539 5532 5525 5518 5511 5504 5499 5493 5489 5485 5482 5481 5483 5483 5482 5490 5498 5506 5513 5521 5524 5530 5534
5668 5663 5658 5653 5647 5641 5637 5627 5617 5610 5602 5593 5585 5576 5569 5562 5555 5547 5541 5534 5527 5519 5509 5501 5493 5485 5480 5475 5468 5468 5464 5461 5460 5464 5468 5470 5477 5484 5494 5498 5507 5514 5519
5661 5654 5649 5646 5645 5636 5627 5619 5609 5601 5594 5585 5579 5570 5561 5553 5544 5535 5526 5517 5507 5499 5492 5484 5475 5465 5459 5456 5449 5447 5446 5444 5443 5444 5446 5450 5455 5461 5468 5485 5488 5495 5504
5651 5649 5645 5643 5635 5627 5619 5609 5598 5592 5586 5578 5570 5561 5553 5542 5532 5524 5512 5502 5493 5483 5472 5464 5454 5447 5442 5436 5432 5428 5427 5427 5426 5425 5427 5430 5434 5439 5446 5454 5470 5476 5486
5643 5637 5631 5626 5621 5614 5607 5597 5589 5584 5578 5569 5560 5551 5543 5532 5519 5507 5496 5485 5476 5466 5455 5446 5436 5427 5422 5418 5413 5411 5409 5408 5409 5410 5409 5414 5418 5422 5429 5433 5446 5451 5466
5626 5624 5620 5613 5607 5601 5595 5588 5578 5572 5568 5560 5554 5545 5534 5520 5508 5494 5479 5467 5455 5446 5440 5431 5420 5412 5406 5401 5397 5396 5395 5393 5393 5395 5397 5402 5405 5409 5413 5420 5424 5430 5447
5622 5618 5611 5601 5595 5589 5581 5570 5569 5562 5558 5550 5543 5533 5522 5507 5492 5477 5461 5447 5436 5425 5419 5410 5404 5397 5393 5388 5384 5382 5381 5381 5380 5382 5384 5388 5392 5395 5399 5404 5404 5404 5419
5616 5608 5600 5590 5582 5577 5571 5563 5558 5552 5545 5536 5528 5518 5504 5487 5470 5454 5440 5426 5417 5407 5398 5392 5385 5382 5379 5374 5370 5367 5367 5365 5368 5370 5372 5375 5377 5381 5386 5387 5390 5391 5397
5605 5597 5589 5580 5573 5566 5559 5551 5545 5540 5533 5522 5509 5496 5481 5465 5449 5432 5418 5406 5395 5387 5380 5377 5373 5369 5365 5361 5357 5355 5352 5350 5350 5351 5351 5355 5355 5359 5360 5361 5366 5369 5371
5598 5587 5579 5570 5564 5553 5543 5535 5531 5525 5517 5504 5489 5475 5460 5444 5429 5413 5400 5389 5382 5374 5370 5365 5361 5357 5353 5348 5344 5341 5338 5335 5333 5331 5327 5331 5334 5337 5338 5337 5340 5344 5349
5584 5574 5566 5555 5547 5536 5527 5520 5516 5509 5499 5485 5468 5453 5438 5423 5410 5397 5386 5374 5367 5362 5357 5353 5349 5344 5339 5334 5329 5324 5320 5316 5313 5311 5309 5308 5306 5307 5308 5311 5316 5319 5325
5569 5562 5549 5539 5530 5520 5511 5508 5500 5493 5482 5467 5450 5435 5420 5406 5393 5382 5371 5362 5355 5350 5345 5340 5335 5329 5323 5317 5311 5307 5302 5297 5295 5292 5289 5287 5283 5281 5281 5284 5290 5295 5299
5553 5537 5526 5522 5513 5505 5499 5493 5484 5476 5463 5446 5430 5415 5401 5389 5375 5366 5358 5350 5342 5338 5333 5326 5320 5314 5307 5301 5293 5287 5281 5275 5273 5269 5266 5266 5265 5266 5268 5270 5278 5279 5285
5526 5516 5513 5503 5498 5493 5487 5474 5465 5456 5442 5427 5408 5390 5379 5373 5362 5352 5345 5337 5331 5326 5320 5312 5304 5298 5292 5284 5274 5266 5261 5258 5257 5258 5259 5260 5261 5263 5266 5269 5273 5274 5276
5510 5506 5497 5490 5487 5478 5464 5453 5444 5428 5414 5398 5383 5370 5361 5358 5350 5340 5332 5326 5318 5312 5305 5297 5288 5282 5275 5267 5258 5252 5249 5249 5251 5254 5256 5258 5261 5262 5265 5269 5272 5274 5275
5498 5494 5486 5482 5474 5459 5444 5433 5421 5408 5394 5380 5370 5364 5358 5349 5338 5330 5322 5313 5305 5297 5289 5282 5273 5265 5259 5251 5248 5247 5247 5249 5252 5254 5256 5257 5260 5261 5262 5265 5267 5270 5273
5484 5476 5475 5466 5452 5438 5425 5414 5403 5389 5376 5374 5369 5358 5347 5337 5328 5319 5309 5300 5291 5284 5275 5266 5257 5251 5248 5246 5247 5247 5248 5251 5254 5257 5258 5259 5260 5261 5260 5261 5263 5265 5268
5470 5467 5459 5445 5434 5423 5413 5404 5394 5386 5380 5368 5355 5343 5334 5325 5317 5306 5297 5289 5280 5273 5263 5255 5247 5243 5243 5246 5248 5248 5249 5253 5257 5258 5258 5258 5258 5258 5258 5258 5260 5262 5262
5466 5453 5439 5425 5417 5412 5401 5391 5382 5375 5362 5350 5340 5330 5322 5313 5304 5295 5286 5278 5270 5261 5253 5246 5241 5240 5242 5245 5247 5247 5246 5247 5251 5253 5254 5255 5257 5257 5257 5259 5259 5260 5258
5450 5433 5419 5410 5401 5392 5379 5373 5366 5354 5344 5335 5326 5317 5309 5300 5292 5284 5275 5266 5257 5251 5242 5239 5239 5238 5240 5242 5243 5242 5241 5243 5246 5250 5253 5253 5254 5255 5258 5259 5259 5259 5257
5423 5413 5403 5394 5384 5376 5369 5359 5344 5338 5330 5321 5314 5304 5295 5287 5280 5269 5262 5254 5248 5241 5236 5235 5235 5237 5238 5239 5240 5241 5243 5244 5246 5250 5254 5256 5259 5261 5261 5263 5265 5264 5261
5402 5394 5386 5376 5369 5363 5353 5339 5331 5323 5315 5307 5300 5291 5283 5276 5266 5256 5249 5243 5236 5232 5229 5228 5231 5234 5236 5237 5239 5241 5246 5247 5249 5253 5256 5257 5258 5261 5263 5268 5274 5276 5273
5387 5379 5371 5363 5358 5351 5339 5329 5319 5312 5302 5293 5285 5278 5270 5261 5253 5246 5238 5234 5227 5224 5224 5225 5227 5231 5232 5234 5238 5244 5247 5248 5249 5251 5253 5253 5255 5257 5261 5268 5275 5274 5272
5373 5367 5359 5355 5347 5338 5327 5319 5308 5297 5285 5277 5270 5261 5254 5247 5242 5235 5231 5226 5223 5222 5223 5224 5225 5226 5228 5233 5238 5242 5246 5246 5248 5249 5248 5246 5245 5248 5253 5260 5269 5267 5264